USA 170

Last updated on Mon Sep 21 2026 00:02:57 GMT+0000 (Coordinated Universal Time)

1 27875U 03040A 26263.56721502 .00000126 00000+0 00000+0 0 9990 2 27875 10.6982 47.0137 0001730 164.8536 15.8917 1.00273038 33958
UTC large
Height (km)
Speed (km/s)
/
Latitude / Longitude
Inclination (degrees)
Orbital Period (minutes)
Azimuth
Elevation
Range (km)
Doppler Factor

Next 0 passes for location: London (51.5072 / 0.1276)

No passes found over London.
USA 170